Вернуться в каталог

BEIDOU 3M9

АктивенНавигацияMEO
NORAD 43581·PAYLOAD·🇨🇳 China

Запущен Jul 29, 2018 с Xichang Satellite Launch Center

Loading…

Ближайшие Пролёты (ближайшие 24 часа)

TLE

СвежийSource: CelesTrak SupGP

Эпоха: Sep 14, 2026, 00:00 UTC

1 43581C 18062A   26257.00000000  .00000000  00000+0  00000+0 0  2575
2 43581  54.0824 179.2869 0003860 316.0295 241.8490  1.86228825    12

Отслеживайте BEIDOU 3M9 в реальном времени с AllMySat

Download on the App Store